Weather History for PAWD - March, 2013

Change the Weather History Date:

Thursday, March 7, 2013

  Actual Average Record
Temperature  
Mean Temperature 37 °F -  
Max Temperature 41 °F 35 °F 46 °F (1950)
Min Temperature 33 °F 25 °F -6 °F (1971)
Degree Days  
Heating Degree Days 28    
Moisture  
Dew Point 32 °F    
Average Humidity 82    
Maximum Humidity 100    
Minimum Humidity 55    
Precipitation  
Precipitation 0.96 in - - ()
Sea Level Pressure  
Sea Level Pressure 29.67 in    
Wind  
Wind Speed 12 mph (SSW)    
Max Wind Speed 28 mph    
Max Gust Speed 34 mph    
Visibility 8 miles    
Events Rain , Snow    
Averages and records for this station are not official NWS values.
T = Trace of Precipitation, MM = Missing Value Source: NWS Daily Summary

Daily Weather History Graph

Daily Weather History Graph

Search for Another Location

Airport or City:

Trip Planner

Search our weather history database for the weather conditions in past years. The results will help you decide how hot, cold, wet, or windy it might be!

Date:

Astronomy

Mar. 07, 2013 Rise Set
Actual Time 7:37 AM AKST 6:41 PM AKST
Civil Twilight 6:55 AM AKST 7:22 PM AKST
Nautical Twilight 6:07 AM AKST 8:11 PM AKST
Astronomical Twilight 5:16 AM AKST 9:02 PM AKST
Moon 5:40 AM AKST (3/7) 1:48 PM AKST (3/7)
Length of Visible Light 12h 27m
Length of Day
11h 04m
Waning Crescent, 19% of the Moon is Illuminated
Mar 7
Waning Crescent
Mar 11
New
Mar 19
First Quarter
Mar 27
Full
Apr 2
Last Quarter

Hourly Weather History & Observations

Time (AKST) Temp. Windchill Dew Point Humidity Pressure Visibility Wind Dir Wind Speed Gust Speed Precip Events Conditions
12:33 AM 37.4 °F - 33.8 °F 87% 29.85 in 10.0 mi Calm Calm - N/A   Overcast
12:53 AM 37.9 °F 33.5 °F 33.1 °F 83% 29.85 in 10.0 mi Variable 5.8 mph - N/A   Overcast
1:00 AM 37.4 °F - 33.8 °F 87% 29.84 in 10.0 mi Calm Calm - N/A   Overcast
1:53 AM 39.9 °F 31.8 °F 33.1 °F 77% 29.83 in 10.0 mi SSW 15.0 mph 23.0 mph N/A   Overcast
3:53 AM 41.0 °F 31.6 °F 33.1 °F 73% 29.76 in 10.0 mi SSW 20.7 mph 27.6 mph 0.00 in   Overcast
4:07 AM 39.2 °F 29.6 °F 33.8 °F 81% 29.76 in 10.0 mi SSW 19.6 mph 26.5 mph N/A   Overcast
4:16 AM 39.2 °F 29.8 °F 32.0 °F 75% 29.75 in 10.0 mi SSW 18.4 mph 29.9 mph N/A   Overcast
4:53 AM 39.9 °F 30.2 °F 32.0 °F 73% 29.74 in 10.0 mi South 20.7 mph 27.6 mph 0.00 in Rain Light Rain
5:53 AM 39.9 °F 31.8 °F 32.0 °F 73% 29.71 in 10.0 mi SE 15.0 mph 29.9 mph 0.00 in   Overcast
5:58 AM 39.2 °F 32.5 °F 32.0 °F 75% 29.71 in 10.0 mi SSE 10.4 mph 29.9 mph N/A   Overcast
6:10 AM 39.2 °F 33.0 °F 32.0 °F 75% 29.71 in 10.0 mi ESE 9.2 mph 18.4 mph N/A   Overcast
6:21 AM 37.4 °F 29.8 °F 33.8 °F 87% 29.71 in 10.0 mi SSE 11.5 mph 19.6 mph N/A   Overcast
6:46 AM 39.2 °F 27.8 °F 30.2 °F 70% 29.69 in 10.0 mi SSW 27.6 mph 34.5 mph N/A   Overcast
6:53 AM 39.9 °F 30.2 °F 30.9 °F 70% 29.69 in 10.0 mi SSW 20.7 mph 34.5 mph N/A   Overcast
7:53 AM 39.9 °F 29.7 °F 30.9 °F 70% 29.67 in 10.0 mi SSW 23.0 mph 32.2 mph N/A   Overcast
8:53 AM 39.9 °F 29.7 °F 30.0 °F 68% 29.66 in 10.0 mi SSW 23.0 mph 28.8 mph N/A   Overcast
9:53 AM 41.0 °F 31.9 °F 28.0 °F 60% 29.65 in 10.0 mi SSW 19.6 mph 26.5 mph N/A   Overcast
10:53 AM 39.9 °F 30.5 °F 27.0 °F 60% 29.63 in 10.0 mi SSW 19.6 mph 29.9 mph N/A   Overcast
11:53 AM 39.9 °F 29.5 °F 27.0 °F 60% 29.62 in 10.0 mi SSW 24.2 mph 32.2 mph N/A   Overcast
12:53 PM 41.0 °F 33.5 °F 26.1 °F 55% 29.61 in 10.0 mi South 13.8 mph 29.9 mph N/A   Overcast
1:33 PM 37.4 °F 26.4 °F 30.2 °F 75% 29.62 in 6.0 mi SSW 23.0 mph 29.9 mph 0.00 in Snow Light Snow
1:53 PM 37.0 °F 28.9 °F 32.0 °F 82% 29.62 in 6.0 mi SSW 12.7 mph 21.9 mph 0.01 in Snow Light Snow
2:17 PM 37.4 °F 31.4 °F 32.0 °F 81% 29.60 in 4.0 mi SW 8.1 mph - 0.05 in Rain Light Rain
2:51 PM 35.6 °F 24.5 °F 33.8 °F 93% 29.60 in 2.0 mi SSW 20.7 mph 25.3 mph 0.16 in Snow Light Snow
2:53 PM 35.1 °F 23.8 °F 33.1 °F 92% 29.60 in 2.0 mi SSW 20.7 mph 25.3 mph 0.17 in Snow Light Snow
3:37 PM 35.6 °F 25.5 °F 33.8 °F 93% 29.60 in 3.0 mi SSW 17.3 mph 28.8 mph 0.12 in Snow Light Snow
3:53 PM 36.0 °F 26.0 °F 33.1 °F 89% 29.60 in 5.0 mi SSW 17.3 mph 25.3 mph 0.17 in Snow Light Snow
4:53 PM 35.1 °F 25.2 °F 33.1 °F 92% 29.61 in 5.0 mi SSW 16.1 mph - 0.09 in Rain Light Rain
5:53 PM 36.0 °F 27.1 °F 33.1 °F 89% 29.61 in 6.0 mi SSW 13.8 mph - 0.14 in Rain Light Rain
6:53 PM 36.0 °F 26.0 °F 33.1 °F 89% 29.60 in 4.0 mi SSW 17.3 mph - 0.12 in Snow Light Snow
7:36 PM 37.4 °F 30.3 °F 33.8 °F 87% 29.60 in 10.0 mi SSW 10.4 mph - 0.05 in Rain Light Rain
7:53 PM 37.0 °F 31.0 °F 33.1 °F 86% 29.61 in 10.0 mi SSW 8.1 mph - 0.08 in Rain Light Rain
8:38 PM 37.4 °F - 33.8 °F 87% 29.60 in 10.0 mi North - - 0.03 in Rain Light Rain
8:53 PM 37.9 °F - 33.1 °F 83% 29.61 in 10.0 mi North - - 0.03 in Rain Light Rain
9:27 PM 35.6 °F 31.7 °F 33.8 °F 93% 29.61 in 10.0 mi NNE 4.6 mph - 0.03 in Rain Light Rain
9:46 PM 35.6 °F 32.8 °F 33.8 °F 93% 29.62 in 7.0 mi NNW 3.5 mph - 0.04 in Snow Light Snow
9:53 PM 34.0 °F 29.8 °F 33.1 °F 96% 29.62 in 8.0 mi North 4.6 mph - 0.06 in Snow Light Snow
10:53 PM 34.0 °F - 33.1 °F 96% 29.63 in 5.0 mi Calm Calm - 0.03 in Rain Light Rain
11:14 PM 33.8 °F - 33.8 °F 100% 29.63 in 2.5 mi Calm Calm - 0.03 in Rain Light Rain
11:30 PM 33.8 °F - 33.8 °F 100% 29.63 in 4.0 mi Calm Calm - 0.04 in Rain Light Rain
11:53 PM 34.0 °F - 33.1 °F 96% 29.63 in 4.0 mi Calm Calm - 0.06 in Rain Light Rain